Overview Statistics Trail Chart Weather Telemetry Raw packets
 

This is the latest recevied weather packets stored in our database for station/object K5FEP. If no packets are shown the sender has not sent any weather packets the latest 10 day(s).

<< 48 49 50 51 52 53 54 >>
Time Temp. Humidity Pressure Rain* Wind** Luminosity Snow
1788311979 27.22° C 70% 1015.7 hPa 0 mm - 0 W/m² -
1788311674 27.22° C 70% 1015.7 hPa 0 mm - 0 W/m² -
1788311373 27.78° C 69% 1015.9 hPa 0 mm - 0 W/m² -
1788311069 27.78° C 68% 1015.4 hPa 0 mm - 0 W/m² -
1788310768 27.78° C 68% 1015.6 hPa 0 mm - 0 W/m² -
1788310467 27.78° C 67% 1015.3 hPa 0 mm - 0 W/m² -
1788310164 28.33° C 65% 1015.2 hPa 0 mm - 0 W/m² -
1788309863 28.33° C 65% 1015.2 hPa 0 mm - 0 W/m² -
1788309559 28.33° C 64% 1015.2 hPa 0 mm - 0 W/m² -
1788309259 28.89° C 64% 1015.3 hPa 0 mm - 0 W/m² -
1788308954 28.89° C 64% 1015.1 hPa 0 mm - 0 W/m² -
1788308655 28.89° C 61% 1015.2 hPa 0 mm - 0 W/m² -
1788308349 28.89° C 62% 1015.1 hPa 0 mm - 0 W/m² -
1788308049 29.44° C 61% 1015.3 hPa 0 mm - 0 W/m² -
1788307744 29.44° C 61% 1015.4 hPa 0 mm - 0 W/m² -
1788307439 30° C 59% 1015.1 hPa 0 mm - 0 W/m² -
1788307134 30.56° C 53% 1015.3 hPa 0 mm - 0 W/m² -
1788306834 31.11° C 51% 1015.3 hPa 0 mm - 1 W/m² -
1788306530 31.11° C 50% 1015.1 hPa 0 mm - 2 W/m² -
1788306229 31.67° C 48% 1015.2 hPa 0 mm - 4 W/m² -
1788305924 32.22° C 47% 1015.1 hPa 0 mm - 6 W/m² -
1788305620 32.78° C 46% 1015.1 hPa 0 mm - 9 W/m² -
1788305316 33.33° C 44% 1015.1 hPa 0 mm - 13 W/m² -
1788305011 33.33° C 44% 1015.2 hPa 0 mm - 17 W/m² -
1788304707 33.89° C 42% 1015.2 hPa 0 mm - 21 W/m² -

* Rain latest hour (hover to see other rain measurements)
** Current wind speed in m/s (hover to see current wind gust speed)